User: anonymous   Login
Location: Unspecified
(0.0000°N, 0.0000°E)
Time: 10:50:33
(UTC+00:00)
Language:

Aussat K2 - Orbit

View from above orbital plane
View from above orbital plane
View from above satellite
View from above satellite

Ground track
Ground track

The orbit data is extracted from the following two-line orbital elements,

1 16275U 85109C   16036.24712116 +.00000035 +00000-0 +00000-0 0  9992
2 16275 015.0477 013.8957 0006557 227.6427 219.7447 00.99936116008706
Epoch (UTC): 05 February 2016 05:55:51
Eccentricity: 0.0006557
inclination: 15.0477°
perigee height: 35853 km
apogee height: 35908 km
right ascension of ascending node: 13.8957°
argument of perigee: 227.6427°
revolutions per day: 0.99936116
mean anomaly at epoch: 219.7447°
orbit number at epoch: 870

The dashed part of the orbit path shows where the satellite is in the earth's shadow,  

DLR